Hourly Data Report for December 07, 2021

SHEARWATER RCS
NOVA SCOTIA
Current Station Operator: ECCC - MSC

44°37'47.000" N
63°30'48.000" W
24.00 m
8205092
71264
AAW

Download Data

Hourly Data (December 2021)
Hourly Data Report for December 7, 2021
TIME
LST
Temp Definition
°C
Dew Point Definition
°C
Rel Hum Definition
%
Precip. Amount Definition
mm

Wind Dir Definition
10's deg

Wind Spd Definition
km/h
Visibility Definition
km
Stn Press Definition
kPa
Hmdx Definition


Wind Chill Definition


Weather Definition


00:00 13.6 13.5 99 4.8 17 35   100.20     LegendNANA
01:00 14.2 13.9 99 0.0 18 41   100.01     LegendNANA
02:00 14.4 14.0 97 0.0 18 43   99.84     LegendNANA
03:00 14.4 14.2 99 1.9 18 41   99.66     LegendNANA
04:00 14.9 14.7 99 5.4 19 41   99.64     LegendNANA
05:00 13.9 13.2 96 3.0 20 40   99.60     LegendNANA
06:00 9.6 7.4 86 0.4 27 24   99.82     LegendNANA
07:00 8.4 5.5 82 0.0 26 14   99.89     LegendNANA
08:00 7.3 4.4 82 0.0 27 22   100.21     LegendNANA
09:00 5.6 1.2 73 0.0 27 19   100.51     LegendNANA
10:00 5.8 0.5 69 0.0 26 16   100.67     LegendNANA
11:00 6.1 -1.3 59 0.0 27 22   100.77     LegendNANA
12:00 6.2 -2.5 54 0.0 26 20   100.79     LegendNANA
13:00 6.9 -2.6 51 0.0 24 18   100.84     LegendNANA
14:00 7.0 -5.4 41 0.0 27 18   100.93     LegendNANA
15:00 6.0 -7.0 39 0.0 28 17   101.06     LegendNANA
16:00 4.5 -7.4 42 0.0 28 16   101.21     LegendNANA
17:00 3.6 -7.2 45 0.0 26 15   101.34     LegendNANA
18:00 2.7 -7.9 46 0.0 29 13   101.36     LegendNANA
19:00 2.3 -8.2 46 0.0 28 15   101.44     LegendNANA
20:00 1.9 -8.2 47 0.0 27 16   101.54     LegendNANA
21:00 1.7 -8.6 46 0.0 28 13   101.64     LegendNANA
22:00 1.4 -9.2 45 0.0 28 14   101.71     LegendNANA
23:00 0.9 -8.5 49 0.0 31 11   101.69     LegendNANA

Notes on Data Quality.

Legend

  • E = Estimated
  • M = Missing
  • NA = Not Available*
  • [empty] = Indicates an unobserved value
Date modified: